Find Starlink 3121

NORAD ID: 49428 Int'l Des: 2021-104 Owner: SPXS Country: US Constellation: starlink operational
LEOCIRCULAR

リアルタイム位置

3D地球を読み込み中...

Starlink 3121について

説明を読み込み中...

次回通過

Passes for default location (London). Set your location on the main map for personalized predictions.

高度履歴

Loading altitude history...

軌道要素

1 49428U 21104W 26125.95069894 .00001291 00000-0 99199-4 0 9995
2 49428 53.2194 331.9787 0001305 89.4712 270.6430 15.08835753247281
Epoch: May 5, 2026 • Age: 4 hours

現在のステータス

高度 546.3 km
速度 7.59 km/s
衛星直下点 -21.64°S, 99.28°W
打ち上げ日 Nov 13, 2021
運用期間 4.4 years
タイプ internet

技術仕様

分類 Payload
質量 290.00 kg
乾燥質量 270.00 kg
総質量 290.00 kg
長さ 0.20 m
直径 2.80 m
スパン 9.00 m
形状 Box + pan
製造者 SPXS
バスタイプ Starlink
フェーズステータス In Orbit
所有者/国 SPXS/US

Most Searched